Flag for Saudi Arabia Weather past 2 weeks in Qatif, Saudi Arabia

Now
88 °F

Clear.


Feels Like: 94 °F
Forecast: 89 / 104 °F
Wind: 2 mph from North

Location: King Fahd International Airport

Current Time: Sep 5, 2015 at 4:38:55 AM

Latest Report: Sep 5, 2015 at 4:00 AM


Visibility: 4 mi

Pressure: 29.71 "Hg

Humidity: 59%

Dew point: 72 °F

Location of QatifLocation

Historic Weather in Qatif — Graph

°F

Qatif temperature yesterday

Maximum temperature yesterday: 102 °F (at 11:00 AM)
Minimum temperature yesterday: 81 °F (at 5:00 AM)
Average temperature yesterday: 93 °F

Past Weeks' High & Low Weather Summary

 TemperatureHumidityPressure
High118 °F (Aug 21, 1:00 PM)79% (Aug 21, 5:00 AM)29.71 "Hg (Aug 21, 5:00 AM)
Low81 °F (Sep 4, 5:00 AM)6% (Aug 25, 1:00 PM)29.47 "Hg (Aug 21, 2:00 PM)
Average98 °F34%29.57 "Hg
* Reported Aug 21 3:00 AM — Sep 5 3:00 AM, Qatif, Weather by CustomWeather, © 2015

Note: Actual official high and low records may vary slightly from our data, if they occured in-between our weather recording intervals... More about our weather records

Advertising

Qatif weather history for previous 24 hours

 ConditionsComfort  
Time TempWeatherWind HumidityBarometerVisibility
3:00 AM
Sat, Sep 5
90 °FClear.7 mph59%29.68 "Hg4 mi
2:00 AM91 °FClear.8 mph56%29.71 "Hg4 mi
1:00 AM93 °FClear.14 mph56%29.68 "Hg4 mi
12:00 AM93 °FClear.14 mph59%29.71 "Hg4 mi
11:00 PM
Fri, Sep 4
93 °FClear.16 mph59%29.71 "Hg4 mi
10:00 PM93 °FClear.12 mph59%29.71 "Hg4 mi
9:00 PM93 °FClear.13 mph59%29.71 "Hg4 mi
8:00 PM93 °FClear.9 mph44%29.68 "Hg5 mi
7:00 PM95 °FClear.10 mph41%29.65 "Hg4 mi
6:00 PM97 °FClear.12 mph34%29.65 "Hg3 mi
5:00 PM97 °FSunny.16 mph42%29.62 "Hg2 mi
4:00 PM99 °FSunny.17 mph47%29.62 "Hg2 mi
3:00 PM100 °FSunny.16 mph40%29.62 "Hg4 mi
2:00 PM102 °FSunny.12 mph29%29.62 "Hg4 mi
1:00 PM102 °FSunny.13 mph35%29.62 "Hg3 mi
12:00 PM100 °FSunny.13 mph40%29.62 "Hg5 mi
11:00 AM102 °FPassing clouds.9 mph29%29.65 "HgN/A
10:00 AM99 °FPassing clouds.7 mph39%29.65 "HgN/A
9:00 AM95 °FSunny.7 mph41%29.65 "Hg10 mi
8:00 AM88 °FSunny.3 mph40%29.65 "Hg10 mi
7:00 AM86 °FSunny.2 mph43%29.65 "Hg10 mi
6:00 AM81 °FSunny.5 mph54%29.62 "Hg5 mi
5:00 AM81 °FClear.6 mph54%29.59 "Hg10 mi
4:00 AM84 °FClear.3 mph48%29.59 "Hg10 mi
Weather by CustomWeather, © 2015

See weather overviewHow to use our weather pages